map of ECN home
ECN - Airport
Location
City:  Lefkosa, Cyprus
Near (Alt.):Nicosia
Name:Ercan International Airport
ICAO:LCEN
IATA:ECN

Details
Type:Airport (Aerodrome, Airfield)
Use:International (customs port of entry)
Latitude:3508'56"N (35.148889)
Longitude:3329'59"E (33.499722)
Elevation:402 ft (123 m)
Variation:5.12E (WMM2015 magnetic declination)
0.09 annual change
Runways:1
Longest:9039 × 148 ft (2755 × 45 m)

Time
Time Zone:UTC+2 (DST+3)
Local Time:

Weather
METAR:LCEN 220320Z 22004KT 9999 FEW025 07/05 Q1017 NOSIG RMK RWY11 23003KT
TAF:LCEN 211040Z 2112/2212 10012KT 9999 FEW025 SCT100= TAF COR LTAC 211040Z 2112/2212 VRB02KT 4000 -RASN BR BKN025 BKN100
TEMPO 2112/2116 2000
TEMPO 2119/2123 2000 -SN
BECMG 2200/2203 8000 BKN035 BKN100
TEMPO 2203/2207 2000 BR

Related Locations
Nearby:
Farthest:RVV: 11651 mi / 18750 km
Raivavae, Tubuai Islands, Austral Islands, PF

Find:

   beyond  
but within

Other Information
Maps:
NOTAMs:
Links:
Sources:

  
  • flag of Cyprus
  

Sectional Chart

Flight Planning
at skyvector.com

Satellite Image

Google Maps Satellite view

 

Copyright © 2004-2019 Karl L. Swartz. All rights reserved.
The Great Circle Mapper name and logo are trademarks of the Great Circle Mapper.
All other trademarks mentioned herein belong to their respective owners.
Please see credits for attibutions and further copyright information.

  Follow gcmap on Facebook Follow gcmap on Twitter Follow gcmap on Google+ GCmap on LinkedIn

hCard Microformat

Geo Microformat